,,,PA_Meas_PMT16A,,PR_Meas_QMR101_102,,RH_Meas_QMH101,,SR_Meas_QMS101,,TA_Meas_QMH101,,GenWind,,GenWind,
date,time,status,PA,status,PR,status,RH,status,SR,status,TA,status,DirAvg,status,SpdAvg,
2009-09-26, 00:00:04,VALID,998.832,VALID,0,VALID,88.0077,VALID,0,VALID,22.4543,VALID,22,VALID,0.757422,
2009-09-26, 00:01:04,VALID,998.834,VALID,0,VALID,87.5423,VALID,0,VALID,22.4738,VALID,23,VALID,0.693359,
2009-09-26, 00:02:04,VALID,998.842,VALID,0,VALID,86.9319,VALID,0,VALID,22.4721,VALID,32,VALID,0.824219,
2009-09-26, 00:03:04,VALID,998.833,VALID,0,VALID,86.1308,VALID,0,VALID,22.5306,VALID,45,VALID,1.06953,
2009-09-26, 00:04:04,VALID,998.841,VALID,0,VALID,86.0545,VALID,0,VALID,22.5306,VALID,48,VALID,1.03125,
2009-09-26, 00:05:04,VALID,998.851,VALID,0,VALID,85.8256,VALID,0,VALID,22.5519,VALID,48,VALID,0.851563,
2009-09-26, 00:06:04,VALID,998.822,VALID,0,VALID,85.612,VALID,0,VALID,22.4526,VALID,51,VALID,0.637891,
2009-09-26, 00:07:04,VALID,998.811,VALID,0,VALID,86.1537,VALID,0,VALID,22.4136,VALID,51,VALID,0.623047,
2009-09-26, 00:08:04,VALID,998.783,VALID,0,VALID,86.4207,VALID,0,VALID,22.3941,VALID,51,VALID,0.410937,
2009-09-26, 00:09:04,VALID,998.738,VALID,0,VALID,86.291,VALID,0,VALID,22.3356,VALID,47,VALID,0.363672,
2009-09-26, 00:10:04,VALID,998.752,VALID,0,VALID,86.8098,VALID,0,VALID,22.2966,VALID,353,VALID,0.507422,
2009-09-26, 00:11:04,VALID,998.707,VALID,0,VALID,86.8937,VALID,0,VALID,22.2576,VALID,353,VALID,0.550391,
2009-09-26, 00:12:04,VALID,998.758,VALID,0,VALID,87.2294,VALID,0,VALID,22.199,VALID,355,VALID,0.63125,
2009-09-26, 00:13:04,VALID,998.767,VALID,0,VALID,87.7635,VALID,0,VALID,22.2202,VALID,16,VALID,0.871484,
2009-09-26, 00:14:04,VALID,998.783,VALID,0,VALID,87.9314,VALID,0,VALID,22.1812,VALID,35,VALID,0.811328,
2009-09-26, 00:15:04,VALID,998.778,VALID,0,VALID,88.206,VALID,0,VALID,22.1795,VALID,46,VALID,0.761719,
2009-09-26, 00:16:04,VALID,998.771,VALID,0,VALID,88.3968,VALID,0,VALID,22.199,VALID,47,VALID,0.923047,
2009-09-26, 00:17:04,VALID,998.718,VALID,0,VALID,88.1908,VALID,0,VALID,22.2576,VALID,47,VALID,0.752734,
2009-09-26, 00:18:04,VALID,998.679,VALID,0,VALID,87.9314,VALID,0,VALID,22.2771,VALID,45,VALID,0.783984,
2009-09-26, 00:19:04,VALID,998.641,VALID,0,VALID,87.8169,VALID,0,VALID,22.2983,VALID,37,VALID,0.609375,
2009-09-26, 00:20:04,VALID,998.658,VALID,0,VALID,87.8017,VALID,0,VALID,22.3178,VALID,37,VALID,0.546094,
2009-09-26, 00:21:04,VALID,998.653,VALID,0,VALID,87.5575,VALID,0,VALID,22.2966,VALID,37,VALID,0.582422,
2009-09-26, 00:22:04,VALID,998.668,VALID,0,VALID,87.5575,VALID,0,VALID,22.2771,VALID,40,VALID,0.790234,
2009-09-26, 00:23:04,VALID,998.662,VALID,0,VALID,87.3515,VALID,0,VALID,22.2576,VALID,41,VALID,0.740625,
2009-09-26, 00:24:04,VALID,998.659,VALID,0,VALID,87.6491,VALID,0,VALID,22.2381,VALID,46,VALID,0.600781,
2009-09-26, 00:25:04,VALID,998.623,VALID,0,VALID,87.382,VALID,0,VALID,22.2186,VALID,46,VALID,0.289453,
2009-09-26, 00:26:04,VALID,998.594,VALID,0,VALID,87.4736,VALID,0,VALID,22.1795,VALID,46,VALID,0.546484,
2009-09-26, 00:27:04,VALID,998.584,VALID,0,VALID,87.321,VALID,0,VALID,22.121,VALID,58,VALID,0.764844,
2009-09-26, 00:28:04,VALID,998.582,VALID,0,VALID,87.3668,VALID,0,VALID,22.1015,VALID,59,VALID,0.949219,
2009-09-26, 00:29:04,VALID,998.572,VALID,0,VALID,87.0692,VALID,0,VALID,22.1405,VALID,64,VALID,0.929688,
2009-09-26, 00:30:04,VALID,998.568,VALID,0,VALID,87.0311,VALID,0,VALID,22.16,VALID,64,VALID,0.80625,
2009-09-26, 00:31:04,VALID,998.585,VALID,0,VALID,86.848,VALID,0,VALID,22.1617,VALID,68,VALID,0.75625,
2009-09-26, 00:32:04,VALID,998.565,VALID,0,VALID,87.0692,VALID,0,VALID,22.1405,VALID,68,VALID,0.655469,
2009-09-26, 00:33:04,VALID,998.594,VALID,0,VALID,86.9548,VALID,0,VALID,22.1032,VALID,66,VALID,0.485156,
2009-09-26, 00:34:04,VALID,998.597,VALID,0,VALID,87.1989,VALID,0,VALID,22.0642,VALID,66,VALID,0.206641,
2009-09-26, 00:35:04,VALID,998.579,VALID,0,VALID,87.4278,VALID,0,VALID,21.965,VALID,66,VALID,0.121875,
2009-09-26, 00:36:04,VALID,998.541,VALID,0,VALID,87.8246,VALID,0,VALID,21.887,VALID,57,VALID,0.409766,
2009-09-26, 00:37:04,VALID,998.584,VALID,0,VALID,88.1221,VALID,0,VALID,21.8887,VALID,28,VALID,0.194141,
2009-09-26, 00:38:04,VALID,998.583,VALID,0,VALID,88.2213,VALID,0,VALID,21.809,VALID,29,VALID,0.205078,
2009-09-26, 00:39:04,VALID,998.542,VALID,0,VALID,88.3968,VALID,0,VALID,21.77,VALID,36,VALID,0.351563,
2009-09-26, 00:40:04,VALID,998.548,VALID,0,VALID,88.7096,VALID,0,VALID,21.731,VALID,36,VALID,0.293359,
2009-09-26, 00:41:04,VALID,998.529,VALID,0,VALID,88.9309,VALID,0,VALID,21.7326,VALID,36,VALID,0.337109,
2009-09-26, 00:42:04,VALID,998.558,VALID,0,VALID,89.2208,VALID,0,VALID,21.7521,VALID,36,VALID,0.697266,
2009-09-26, 00:43:04,VALID,998.581,VALID,0,VALID,89.0148,VALID,0,VALID,21.7521,VALID,36,VALID,0.642969,
2009-09-26, 00:44:04,VALID,998.585,VALID,0,VALID,89.0148,VALID,0,VALID,21.731,VALID,36,VALID,0.503125,
2009-09-26, 00:45:04,VALID,998.599,VALID,0,VALID,88.8851,VALID,0,VALID,21.6936,VALID,352,VALID,0.442969,
2009-09-26, 00:46:04,VALID,998.639,VALID,0,VALID,89.2513,VALID,0,VALID,21.6741,VALID,352,VALID,0.366406,
2009-09-26, 00:47:04,VALID,998.64,VALID,0,VALID,89.6328,VALID,0,VALID,21.6936,VALID,352,VALID,0.30625,
2009-09-26, 00:48:04,VALID,998.655,VALID,0,VALID,89.7701,VALID,0,VALID,21.7521,VALID,352,VALID,0.737891,
2009-09-26, 00:49:04,VALID,998.614,VALID,0,VALID,89.9609,VALID,0,VALID,21.7911,VALID,356,VALID,1.2832,
2009-09-26, 00:50:04,VALID,998.633,VALID,0,VALID,89.4878,VALID,0,VALID,21.8106,VALID,4,VALID,1.23125,
2009-09-26, 00:51:04,VALID,998.61,VALID,0,VALID,88.7401,VALID,0,VALID,21.8285,VALID,360,VALID,1.00781,
2009-09-26, 00:52:04,VALID,998.592,VALID,0,VALID,88.4426,VALID,0,VALID,21.8285,VALID,328,VALID,0.627344,
2009-09-26, 00:53:04,VALID,998.582,VALID,0,VALID,88.6867,VALID,0.112286,VALID,21.809,VALID,314,VALID,0.699609,
2009-09-26, 00:54:04,VALID,998.587,VALID,0,VALID,88.5494,VALID,0,VALID,21.848,VALID,313,VALID,0.117188,
2009-09-26, 00:55:04,VALID,998.544,VALID,0,VALID,88.4349,VALID,0,VALID,21.8675,VALID,313,VALID,0.246094,
2009-09-26, 00:56:04,VALID,998.504,VALID,0,VALID,88.2823,VALID,0,VALID,21.887,VALID,313,VALID,0.207422,
2009-09-26, 00:57:04,VALID,998.537,VALID,0,VALID,88,VALID,0,VALID,21.9082,VALID,313,VALID,0.138281,
2009-09-26, 00:58:04,VALID,998.466,VALID,0,VALID,87.8474,VALID,0,VALID,21.848,VALID,313,VALID,0.0382813,
2009-09-26, 00:59:04,VALID,998.447,VALID,0,VALID,88.1526,VALID,0,VALID,21.848,VALID,313,VALID,0.405078,
2009-09-26, 01:00:04,VALID,998.421,VALID,0,VALID,88.0992,VALID,0,VALID,21.848,VALID,313,VALID,0.460547,
2009-09-26, 01:01:04,VALID,998.371,VALID,0,VALID,88.0916,VALID,0,VALID,21.848,VALID,307,VALID,0.55,
2009-09-26, 01:02:04,VALID,998.408,VALID,0,VALID,88.0611,VALID,0,VALID,21.8675,VALID,307,VALID,0.558203,
2009-09-26, 01:03:04,VALID,998.445,VALID,0,VALID,87.7406,VALID,0,VALID,21.887,VALID,307,VALID,0.0382813,
2009-09-26, 01:04:04,VALID,998.398,VALID,0,VALID,87.7254,VALID,0,VALID,21.8675,VALID,307,VALID,0.398047,
2009-09-26, 01:05:04,VALID,998.437,VALID,0,VALID,87.9009,VALID,0,VALID,21.8675,VALID,307,VALID,0.481641,
2009-09-26, 01:06:04,VALID,998.452,VALID,0,VALID,87.7635,VALID,0,VALID,21.8675,VALID,311,VALID,0.552344,
2009-09-26, 01:07:04,VALID,998.467,VALID,0,VALID,87.6414,VALID,0,VALID,21.8675,VALID,4,VALID,0.810156,
2009-09-26, 01:08:04,VALID,998.48,VALID,0,VALID,87.4431,VALID,0,VALID,21.887,VALID,10,VALID,1.08008,
2009-09-26, 01:09:04,VALID,998.509,VALID,0,VALID,87.1913,VALID,0,VALID,21.8675,VALID,52,VALID,1.3625,
2009-09-26, 01:10:04,VALID,998.473,VALID,0,VALID,87.3668,VALID,0,VALID,21.8675,VALID,19,VALID,0.926562,
2009-09-26, 01:11:04,VALID,998.456,VALID,0,VALID,86.7106,VALID,0,VALID,21.9455,VALID,8,VALID,1.11211,
2009-09-26, 01:12:04,VALID,998.482,VALID,0,VALID,86.2071,VALID,0,VALID,22.004,VALID,24,VALID,1.0543,
2009-09-26, 01:13:04,VALID,998.473,VALID,0,VALID,86.0697,VALID,0,VALID,22.004,VALID,24,VALID,1.18359,
2009-09-26, 01:14:04,VALID,998.494,VALID,0,VALID,85.8027,VALID,0,VALID,21.9845,VALID,14,VALID,0.707031,
2009-09-26, 01:15:04,VALID,998.528,VALID,0,VALID,85.8027,VALID,0,VALID,21.965,VALID,1,VALID,0.528516,
2009-09-26, 01:16:04,VALID,998.526,VALID,0,VALID,85.7569,VALID,0,VALID,21.9455,VALID,52,VALID,0.923047,
2009-09-26, 01:17:04,VALID,998.531,VALID,0,VALID,85.3678,VALID,0,VALID,21.926,VALID,38,VALID,1.34883,
2009-09-26, 01:18:04,VALID,998.522,VALID,0,VALID,85.2992,VALID,0,VALID,21.9455,VALID,23,VALID,1.27305,
2009-09-26, 01:19:04,VALID,998.549,VALID,0,VALID,85.3144,VALID,0,VALID,21.9455,VALID,42,VALID,1.1332,
2009-09-26, 01:20:04,VALID,998.559,VALID,0,VALID,85.673,VALID,0,VALID,21.9065,VALID,56,VALID,1.35742,
2009-09-26, 01:21:04,VALID,998.537,VALID,0,VALID,85.7646,VALID,0,VALID,21.8675,VALID,57,VALID,1.2918,
2009-09-26, 01:22:04,VALID,998.514,VALID,0,VALID,86.0087,VALID,0,VALID,21.848,VALID,38,VALID,1.04883,
2009-09-26, 01:23:04,VALID,998.492,VALID,0,VALID,86.0087,VALID,0,VALID,21.7895,VALID,38,VALID,0.711719,
2009-09-26, 01:24:04,VALID,998.471,VALID,0,VALID,86.2147,VALID,0,VALID,21.731,VALID,38,VALID,0.0835937,
2009-09-26, 01:25:04,VALID,998.465,VALID,0,VALID,86.8403,VALID,0,VALID,21.653,VALID,360,VALID,0.476172,
2009-09-26, 01:26:04,VALID,998.435,VALID,0,VALID,86.9319,VALID,0,VALID,21.6725,VALID,329,VALID,0.410156,
2009-09-26, 01:27:04,VALID,998.448,VALID,0,VALID,86.9624,VALID,0,VALID,21.653,VALID,329,VALID,0.389453,
2009-09-26, 01:28:04,VALID,998.452,VALID,0,VALID,87.0463,VALID,0,VALID,21.653,VALID,329,VALID,0.495313,
2009-09-26, 01:29:04,VALID,998.456,VALID,0,VALID,87.0082,VALID,0,VALID,21.6546,VALID,333,VALID,0.823828,
2009-09-26, 01:30:04,VALID,998.409,VALID,0,VALID,87.321,VALID,0,VALID,21.653,VALID,351,VALID,0.973437,
2009-09-26, 01:31:04,VALID,998.413,VALID,0,VALID,87.2218,VALID,0,VALID,21.6725,VALID,353,VALID,0.95625,
2009-09-26, 01:32:04,VALID,998.422,VALID,0,VALID,86.7564,VALID,0,VALID,21.6936,VALID,358,VALID,0.851563,
2009-09-26, 01:33:04,VALID,998.422,VALID,0,VALID,86.5199,VALID,0,VALID,21.692,VALID,357,VALID,0.594531,
2009-09-26, 01:34:04,VALID,998.428,VALID,0,VALID,86.23,VALID,0,VALID,21.7115,VALID,357,VALID,0.483984,
2009-09-26, 01:35:04,VALID,998.439,VALID,0,VALID,86.024,VALID,0,VALID,21.7131,VALID,357,VALID,0.0015625,
2009-09-26, 01:36:04,VALID,998.407,VALID,0,VALID,86.1003,VALID,0,VALID,21.6725,VALID,357,VALID,0.0441406,
2009-09-26, 01:37:04,VALID,998.406,VALID,0,VALID,86.2452,VALID,0,VALID,21.6335,VALID,357,VALID,0,
2009-09-26, 01:38:04,VALID,998.437,VALID,0,VALID,86.3902,VALID,0,VALID,21.5961,VALID,357,VALID,0.21875,
2009-09-26, 01:39:04,VALID,998.418,VALID,0,VALID,86.5351,VALID,0,VALID,21.575,VALID,356,VALID,0.510547,
2009-09-26, 01:40:04,VALID,998.412,VALID,0,VALID,86.4894,VALID,0,VALID,21.614,VALID,351,VALID,0.547656,
2009-09-26, 01:41:04,VALID,998.423,VALID,0,VALID,86.3749,VALID,0,VALID,21.653,VALID,351,VALID,0.433203,
2009-09-26, 01:42:04,VALID,998.416,VALID,0,VALID,86.2605,VALID,0,VALID,21.692,VALID,351,VALID,0.431641,
2009-09-26, 01:43:04,VALID,998.398,VALID,0,VALID,85.734,VALID,0,VALID,21.6741,VALID,74,VALID,0.710156,
2009-09-26, 01:44:04,VALID,998.383,VALID,0,VALID,86.3444,VALID,0,VALID,21.6335,VALID,74,VALID,0.633594,
2009-09-26, 01:45:04,VALID,998.405,VALID,0,VALID,86.4131,VALID,0,VALID,21.614,VALID,61,VALID,0.673047,
2009-09-26, 01:46:04,VALID,998.398,VALID,0,VALID,86.1308,VALID,0,VALID,21.6335,VALID,45,VALID,0.783594,
2009-09-26, 01:47:04,VALID,998.432,VALID,0,VALID,85.2763,VALID,0,VALID,21.6725,VALID,40,VALID,1.09219,
2009-09-26, 01:48:04,VALID,998.44,VALID,0,VALID,85.2305,VALID,0,VALID,21.6335,VALID,39,VALID,0.696094,
2009-09-26, 01:49:04,VALID,998.432,VALID,0,VALID,85.3831,VALID,0,VALID,21.5945,VALID,25,VALID,0.826563,
2009-09-26, 01:50:04,VALID,998.419,VALID,0,VALID,85.5433,VALID,0,VALID,21.536,VALID,18,VALID,0.883203,
2009-09-26, 01:51:04,VALID,998.41,VALID,0,VALID,85.6806,VALID,0,VALID,21.5165,VALID,18,VALID,0.615234,
2009-09-26, 01:52:04,VALID,998.389,VALID,0,VALID,86.3826,VALID,0,VALID,21.4775,VALID,18,VALID,0.866406,
2009-09-26, 01:53:04,VALID,998.364,VALID,0,VALID,86.764,VALID,0,VALID,21.497,VALID,21,VALID,1.22734,
2009-09-26, 01:54:04,VALID,998.389,VALID,0,VALID,86.4741,VALID,0,VALID,21.5165,VALID,21,VALID,1.08594,
2009-09-26, 01:55:04,VALID,998.352,VALID,0,VALID,86.3139,VALID,0,VALID,21.5165,VALID,21,VALID,1.03555,
2009-09-26, 01:56:04,VALID,998.357,VALID,0,VALID,85.8637,VALID,0,VALID,21.458,VALID,21,VALID,0.625781,
2009-09-26, 01:57:04,VALID,998.331,VALID,0,VALID,86.1689,VALID,0,VALID,21.3995,VALID,21,VALID,0.520703,
2009-09-26, 01:58:04,VALID,998.334,VALID,0,VALID,86.3673,VALID,0,VALID,21.3004,VALID,20,VALID,0.216797,
2009-09-26, 01:59:04,VALID,998.333,VALID,0,VALID,86.642,VALID,0,VALID,21.2825,VALID,21,VALID,0.492188,
2009-09-26, 02:00:04,VALID,998.287,VALID,0,VALID,86.8785,VALID,0,VALID,21.2825,VALID,31,VALID,0.882422,
2009-09-26, 02:01:04,VALID,998.257,VALID,0,VALID,86.4207,VALID,0,VALID,21.3215,VALID,29,VALID,0.642187,
2009-09-26, 02:02:04,VALID,998.263,VALID,0,VALID,86.1384,VALID,0,VALID,21.3605,VALID,29,VALID,0.464844,
2009-09-26, 02:03:04,VALID,998.216,VALID,0,VALID,86.2147,VALID,0,VALID,21.3605,VALID,29,VALID,0.512891,
2009-09-26, 02:04:04,VALID,998.239,VALID,0,VALID,86.6343,VALID,0,VALID,21.38,VALID,29,VALID,0.623438,
2009-09-26, 02:05:04,VALID,998.227,VALID,0,VALID,86.8251,VALID,0,VALID,21.3995,VALID,29,VALID,0.530078,
2009-09-26, 02:06:04,VALID,998.219,VALID,0,VALID,86.8556,VALID,0,VALID,21.4385,VALID,29,VALID,0.335547,
2009-09-26, 02:07:04,VALID,998.244,VALID,0,VALID,86.6572,VALID,0,VALID,21.4385,VALID,29,VALID,0.127734,
2009-09-26, 02:08:04,VALID,998.247,VALID,0,VALID,86.6649,VALID,0,VALID,21.4596,VALID,29,VALID,0.318359,
2009-09-26, 02:09:04,VALID,998.252,VALID,0,VALID,86.6267,VALID,0,VALID,21.3995,VALID,35,VALID,0.602734,
2009-09-26, 02:10:04,VALID,998.267,VALID,0,VALID,87.1684,VALID,0,VALID,21.3995,VALID,38,VALID,1.04336,
2009-09-26, 02:11:04,VALID,998.277,VALID,0,VALID,87.1379,VALID,0,VALID,21.4385,VALID,38,VALID,1.01523,
2009-09-26, 02:12:04,VALID,998.278,VALID,0,VALID,86.6191,VALID,0,VALID,21.4986,VALID,38,VALID,0.369531,
2009-09-26, 02:13:04,VALID,998.288,VALID,0,VALID,86.4817,VALID,0,VALID,21.458,VALID,282,VALID,0.474609,
2009-09-26, 02:14:04,VALID,998.296,VALID,0,VALID,86.8937,VALID,0,VALID,21.4385,VALID,260,VALID,0.323828,
2009-09-26, 02:15:04,VALID,998.285,VALID,0,VALID,86.9929,VALID,0,VALID,21.4401,VALID,260,VALID,0.323438,
2009-09-26, 02:16:04,VALID,998.325,VALID,0,VALID,87.0387,VALID,0,VALID,21.419,VALID,260,VALID,0.336328,
2009-09-26, 02:17:04,VALID,998.311,VALID,0,VALID,86.9548,VALID,0,VALID,21.419,VALID,260,VALID,0.170703,
2009-09-26, 02:18:04,VALID,998.309,VALID,0,VALID,87.1379,VALID,0,VALID,21.419,VALID,11,VALID,0.604688,
2009-09-26, 02:19:04,VALID,998.287,VALID,0,VALID,87.466,VALID,0,VALID,21.419,VALID,24,VALID,1.00078,
2009-09-26, 02:20:04,VALID,998.298,VALID,0,VALID,86.9472,VALID,0,VALID,21.4385,VALID,30,VALID,0.748828,
2009-09-26, 02:21:04,VALID,998.281,VALID,0,VALID,87.0769,VALID,0,VALID,21.419,VALID,303,VALID,0.869141,
2009-09-26, 02:22:04,VALID,998.312,VALID,0,VALID,87.1303,VALID,0,VALID,21.419,VALID,317,VALID,0.324609,
2009-09-26, 02:23:04,VALID,998.295,VALID,0,VALID,87.4965,VALID,0,VALID,21.419,VALID,12,VALID,0.550391,
2009-09-26, 02:24:04,VALID,998.272,VALID,0,VALID,87.6033,VALID,0,VALID,21.419,VALID,42,VALID,0.898438,
2009-09-26, 02:25:04,VALID,998.226,VALID,0,VALID,87.8398,VALID,0,VALID,21.4206,VALID,77,VALID,0.882031,
2009-09-26, 02:26:04,VALID,998.209,VALID,0,VALID,88.0763,VALID,0,VALID,21.3995,VALID,66,VALID,0.857422,
2009-09-26, 02:27:04,VALID,998.228,VALID,0,VALID,88.0534,VALID,0,VALID,21.419,VALID,66,VALID,0.848047,
2009-09-26, 02:28:04,VALID,998.234,VALID,0,VALID,87.8246,VALID,0,VALID,21.4401,VALID,59,VALID,0.753906,
2009-09-26, 02:29:04,VALID,998.224,VALID,0,VALID,87.8398,VALID,0,VALID,21.3995,VALID,56,VALID,0.184375,
2009-09-26, 02:30:04,VALID,998.185,VALID,0,VALID,87.9009,VALID,0,VALID,21.38,VALID,58,VALID,0.553125,
2009-09-26, 02:31:04,VALID,998.227,VALID,0,VALID,88.1145,VALID,0,VALID,21.38,VALID,62,VALID,0.385547,
2009-09-26, 02:32:04,VALID,998.177,VALID,0,VALID,87.9619,VALID,0,VALID,21.4011,VALID,62,VALID,0.709375,
2009-09-26, 02:33:04,VALID,998.14,VALID,0,VALID,87.9619,VALID,0,VALID,21.419,VALID,64,VALID,1.1293,
2009-09-26, 02:34:04,VALID,998.138,VALID,0,VALID,87.6949,VALID,0,VALID,21.458,VALID,63,VALID,0.780078,
2009-09-26, 02:35:04,VALID,998.15,VALID,0,VALID,87.5423,VALID,0,VALID,21.4791,VALID,63,VALID,0.198828,
2009-09-26, 02:36:04,VALID,998.094,VALID,0,VALID,87.6491,VALID,0,VALID,21.4385,VALID,54,VALID,0.261328,
2009-09-26, 02:37:04,VALID,998.093,VALID,0,VALID,87.8398,VALID,0,VALID,21.419,VALID,310,VALID,0.494141,
2009-09-26, 02:38:04,VALID,998.128,VALID,0,VALID,87.8322,VALID,0,VALID,21.4385,VALID,305,VALID,0.0191406,
2009-09-26, 02:39:04,VALID,998.098,VALID,0,VALID,87.9237,VALID,0,VALID,21.4401,VALID,305,VALID,0.258984,
2009-09-26, 02:40:04,VALID,998.083,VALID,0,VALID,87.9848,VALID,0,VALID,21.4401,VALID,305,VALID,0.328125,
2009-09-26, 02:41:04,VALID,998.051,VALID,0,VALID,88.0458,VALID,0,VALID,21.4401,VALID,305,VALID,0.288672,
2009-09-26, 02:42:04,VALID,998.017,VALID,0,VALID,88.0916,VALID,0,VALID,21.419,VALID,305,VALID,0.419141,
2009-09-26, 02:43:04,VALID,998.001,VALID,0,VALID,88.0916,VALID,0,VALID,21.4596,VALID,305,VALID,0.534375,
2009-09-26, 02:44:04,VALID,998.006,VALID,0,VALID,88.0229,VALID,0,VALID,21.4385,VALID,27,VALID,0.660937,
2009-09-26, 02:45:04,VALID,997.971,VALID,0,VALID,87.8169,VALID,0,VALID,21.4385,VALID,27,VALID,0.542969,
2009-09-26, 02:46:04,VALID,997.97,VALID,0,VALID,87.9314,VALID,0,VALID,21.4596,VALID,27,VALID,0.563281,
2009-09-26, 02:47:04,VALID,997.973,VALID,0,VALID,88.1679,VALID,0,VALID,21.419,VALID,23,VALID,0.564844,
2009-09-26, 02:48:05,VALID,997.968,VALID,0,VALID,88.0458,VALID,0,VALID,21.4596,VALID,21,VALID,0.525391,
2009-09-26, 02:49:05,VALID,997.958,VALID,0,VALID,87.8932,VALID,0,VALID,21.4791,VALID,21,VALID,0.648438,
2009-09-26, 02:50:05,VALID,997.911,VALID,0,VALID,87.6567,VALID,0,VALID,21.5376,VALID,21,VALID,0.795313,
2009-09-26, 02:51:05,VALID,997.925,VALID,0,VALID,87.4507,VALID,0,VALID,21.5555,VALID,21,VALID,0.861719,
2009-09-26, 02:52:05,VALID,997.943,VALID,0,VALID,87.6338,VALID,0,VALID,21.5961,VALID,11,VALID,0.986328,
2009-09-26, 02:53:05,VALID,997.979,VALID,0,VALID,87.527,VALID,0,VALID,21.5961,VALID,9,VALID,1.21719,
2009-09-26, 02:54:05,VALID,997.989,VALID,0,VALID,87.4965,VALID,0,VALID,21.5555,VALID,5,VALID,1.09102,
2009-09-26, 02:55:05,VALID,997.94,VALID,0,VALID,87.3668,VALID,0,VALID,21.497,VALID,7,VALID,0.885156,
2009-09-26, 02:56:05,VALID,997.967,VALID,0,VALID,87.4507,VALID,0,VALID,21.4206,VALID,19,VALID,1.13203,
2009-09-26, 02:57:05,VALID,997.929,VALID,0,VALID,87.9924,VALID,0,VALID,21.3621,VALID,24,VALID,1.53477,
2009-09-26, 02:58:05,VALID,997.943,VALID,0,VALID,87.8932,VALID,0,VALID,21.302,VALID,21,VALID,1.28164,
2009-09-26, 02:59:05,VALID,997.957,VALID,0,VALID,87.9085,VALID,0,VALID,21.2646,VALID,359,VALID,1.25664,
2009-09-26, 03:00:05,VALID,997.96,VALID,0,VALID,87.6796,VALID,0,VALID,21.302,VALID,358,VALID,0.935938,
2009-09-26, 03:01:05,VALID,997.933,VALID,0,VALID,87.5957,VALID,0,VALID,21.341,VALID,359,VALID,1.08008,
2009-09-26, 03:02:05,VALID,997.954,VALID,0,VALID,87.4736,VALID,0,VALID,21.3605,VALID,9,VALID,1.13828,
2009-09-26, 03:03:05,VALID,997.955,VALID,0,VALID,87.2829,VALID,0,VALID,21.3605,VALID,13,VALID,1.03789,
2009-09-26, 03:04:05,VALID,997.98,VALID,0,VALID,87.2218,VALID,0,VALID,21.341,VALID,13,VALID,1.24883,
2009-09-26, 03:05:05,VALID,997.961,VALID,0,VALID,87.4431,VALID,0.112286,VALID,21.2825,VALID,28,VALID,1.48594,
2009-09-26, 03:06:05,VALID,997.981,VALID,0,VALID,87.5499,VALID,0,VALID,21.263,VALID,36,VALID,1.50352,
2009-09-26, 03:07:05,VALID,997.955,VALID,0,VALID,87.9466,VALID,0,VALID,21.2841,VALID,45,VALID,1.53125,
2009-09-26, 03:08:05,VALID,997.939,VALID,0,VALID,88.0382,VALID,0,VALID,21.3036,VALID,53,VALID,1.54336,
2009-09-26, 03:09:05,VALID,997.905,VALID,0,VALID,87.939,VALID,0,VALID,21.302,VALID,48,VALID,1.54961,
2009-09-26, 03:10:05,VALID,997.893,VALID,0,VALID,87.8017,VALID,0,VALID,21.3231,VALID,43,VALID,1.46875,
2009-09-26, 03:11:05,VALID,997.922,VALID,0,VALID,87.5423,VALID,0,VALID,21.302,VALID,22,VALID,0.950391,
2009-09-26, 03:12:05,VALID,997.918,VALID,0,VALID,87.3057,VALID,0,VALID,21.2841,VALID,22,VALID,0.930078,
2009-09-26, 03:13:05,VALID,997.899,VALID,0,VALID,87.2218,VALID,0,VALID,21.224,VALID,16,VALID,1.09648,
2009-09-26, 03:14:05,VALID,997.921,VALID,0,VALID,87.3134,VALID,0,VALID,21.2061,VALID,16,VALID,1.38398,
2009-09-26, 03:15:05,VALID,997.897,VALID,0,VALID,87.1684,VALID,0,VALID,21.185,VALID,22,VALID,1.05508,
2009-09-26, 03:16:05,VALID,997.924,VALID,0,VALID,87.1455,VALID,0,VALID,21.185,VALID,32,VALID,1.07383,
2009-09-26, 03:17:05,VALID,997.89,VALID,0,VALID,87.1913,VALID,0,VALID,21.146,VALID,32,VALID,0.780078,
2009-09-26, 03:18:05,VALID,997.94,VALID,0,VALID,87.321,VALID,0,VALID,21.107,VALID,32,VALID,0.664844,
2009-09-26, 03:19:05,VALID,997.897,VALID,0,VALID,87.4507,VALID,0,VALID,21.0485,VALID,32,VALID,0.814453,
2009-09-26, 03:20:05,VALID,997.899,VALID,0,VALID,87.7788,VALID,0,VALID,21.029,VALID,31,VALID,1.24453,
2009-09-26, 03:21:05,VALID,997.904,VALID,0,VALID,87.8093,VALID,0,VALID,21.0095,VALID,21,VALID,1.03516,
2009-09-26, 03:22:05,VALID,997.917,VALID,0,VALID,87.9695,VALID,0,VALID,21.0095,VALID,17,VALID,1.01641,
2009-09-26, 03:23:05,VALID,997.934,VALID,0,VALID,88.0916,VALID,0,VALID,21.0306,VALID,18,VALID,1.00781,
2009-09-26, 03:24:05,VALID,997.964,VALID,0,VALID,88.1221,VALID,0,VALID,21.0111,VALID,14,VALID,1.05664,
2009-09-26, 03:25:05,VALID,997.984,VALID,0,VALID,88.1908,VALID,0,VALID,20.9916,VALID,10,VALID,1.15508,
2009-09-26, 03:26:05,VALID,998,VALID,0,VALID,88.2442,VALID,0,VALID,21.0111,VALID,20,VALID,1.01016,
2009-09-26, 03:27:05,VALID,997.962,VALID,0,VALID,88.1145,VALID,0,VALID,21.0306,VALID,20,VALID,1.26758,
2009-09-26, 03:28:05,VALID,997.991,VALID,0,VALID,87.9695,VALID,0,VALID,21.0306,VALID,11,VALID,0.994922,
2009-09-26, 03:29:05,VALID,998.055,VALID,0,VALID,87.9619,VALID,0,VALID,20.99,VALID,5,VALID,0.589844,
2009-09-26, 03:30:05,VALID,998.057,VALID,0,VALID,88.0306,VALID,0,VALID,20.9721,VALID,5,VALID,0.261719,
2009-09-26, 03:31:05,VALID,998.061,VALID,0,VALID,88.2213,VALID,0,VALID,20.9331,VALID,5,VALID,0,
2009-09-26, 03:32:05,VALID,998.065,VALID,0,VALID,88.5417,VALID,0,VALID,20.9331,VALID,5,VALID,0.521094,
2009-09-26, 03:33:05,VALID,998.062,VALID,0,VALID,88.7859,VALID,0,VALID,20.8941,VALID,6,VALID,0.618359,
2009-09-26, 03:34:05,VALID,998.045,VALID,0,VALID,88.8698,VALID,0,VALID,20.9136,VALID,6,VALID,0.455469,
2009-09-26, 03:35:05,VALID,998.047,VALID,0,VALID,88.9156,VALID,0,VALID,20.8925,VALID,6,VALID,0.470703,
2009-09-26, 03:36:05,VALID,998.059,VALID,0,VALID,88.9766,VALID,0,VALID,20.8941,VALID,21,VALID,0.439063,
2009-09-26, 03:37:05,VALID,998.066,VALID,0,VALID,89.0071,VALID,0,VALID,20.8746,VALID,22,VALID,0.190234,
2009-09-26, 03:38:05,VALID,998.07,VALID,0,VALID,89.1216,VALID,0,VALID,20.873,VALID,22,VALID,0.136328,
2009-09-26, 03:39:05,VALID,998.069,VALID,0,VALID,89.2208,VALID,0,VALID,20.8746,VALID,22,VALID,0.247656,
2009-09-26, 03:40:05,VALID,998.098,VALID,0,VALID,89.2971,VALID,0,VALID,20.8746,VALID,20,VALID,0.558203,
2009-09-26, 03:41:05,VALID,998.097,VALID,0,VALID,89.381,VALID,0,VALID,20.8535,VALID,20,VALID,0.421875,
2009-09-26, 03:42:05,VALID,998.101,VALID,0,VALID,89.526,VALID,0,VALID,20.8746,VALID,38,VALID,0.735156,
2009-09-26, 03:43:05,VALID,998.09,VALID,0,VALID,89.6786,VALID,0,VALID,20.8925,VALID,46,VALID,0.648438,
2009-09-26, 03:44:05,VALID,998.075,VALID,0,VALID,89.648,VALID,0,VALID,20.951,VALID,46,VALID,0.711328,
2009-09-26, 03:45:05,VALID,998.059,VALID,0,VALID,89.6862,VALID,0,VALID,20.9916,VALID,46,VALID,0.628906,
2009-09-26, 03:46:05,VALID,998.081,VALID,0,VALID,89.4191,VALID,0,VALID,20.99,VALID,46,VALID,0.289844,
2009-09-26, 03:47:05,VALID,998.12,VALID,0,VALID,89.442,VALID,0,VALID,20.9705,VALID,46,VALID,0.445313,